(140738) = 1996 RP6 = 2001 UH104

Discovered at Socorro on 2001-10-20 by LINEAR.

Orbit

Orbit type: Main Belt

Note: WebGL enabled browser required.

epoch2023-09-13.0
epoch JD2460200.5
perihelion date2021-11-27.78836
perihelion JD2459546.28836
argument of perihelion (°)348.10315
ascending node (°)184.25243
inclination (°)1.20610
eccentricity0.0493978
perihelion distance (AU)2.6230325
Tisserand w.r.t. Jupiter3.3
ΔV w.r.t. Earth (km/sec)10.1
semimajor axis (AU)2.7593376
mean anomaly (°)140.67433
mean daily motion (°/day)0.21502880
aphelion distance (AU)2.896
period (years)4.58
P-vector [x]-0.99110934
P-vector [y]0.12373204
P-vector [z]0.04891489
Q-vector [x]-0.13304078
Q-vector [y]-0.91732273
Q-vector [z]-0.37525878
absolute magnitude16.08
phase slope0.15
uncertainty0
referenceMPO 777799
observations used663
oppositions18
arc length (days)9875
first opposition used1996
last opposition used2023
residual rms (arc-secs)0.69
perturbers coarse indicatorM-v
perturbers precise indicator003Ek
first observation date used1996-09-05.0
last observation date used2023-09-19.0
computer nameMPCLINUX
JD of orbit computation2456966.734246
perihelion JD uncertainty (days)1.7959E-04
argument of perihelion uncertainty (°)1.7852E-04
ascending node uncertainty (°)1.7436E-04
inclination uncertainty (°)4.2812E-06
eccentricity uncertainty 3.9891E-08
perihelion distance uncertainty (AU)1.0770E-07
Minimum Orbit Intersection Distances (in AU)
for orbit epoch: 2460200.5, reference: E2023-VB5
Mercury2.21343
Venus1.90529
Earth1.62658
Mars0.96304
Jupiter2.06344
Saturn6.29356
Uranus15.8228
Neptune26.9646

Observations

677 total observations over interval: 1996 09 05.36309 – 2023 09 19.282743
These data are available for download (format description).

Date (UT) J2000 RA J2000 Dec Magn Location Ref
1996 09 05.36309 23 52 29.54 -00 24 58.9   691 – Steward Observatory, Kitt Peak-Spacewatch MPC 27840
1996 09 05.38403 23 52 28.56 -00 25 05.2   691 – Steward Observatory, Kitt Peak-Spacewatch MPC 27840
1996 09 05.40638 23 52 27.55 -00 25 11.9 20.4 V 691 – Steward Observatory, Kitt Peak-Spacewatch MPC 27840
1996 09 08.38974 23 50 13.84 -00 40 46.0   691 – Steward Observatory, Kitt Peak-Spacewatch MPC 27840
1996 09 08.41087 23 50 12.85 -00 40 52.7   691 – Steward Observatory, Kitt Peak-Spacewatch MPC 27840
1996 09 08.44499 23 50 11.25 -00 41 03.7 20.2 V 691 – Steward Observatory, Kitt Peak-Spacewatch MPC 27840
1996 09 19.31881 23 41 37.06 -01 40 54.1 19.8 V 691 – Steward Observatory, Kitt Peak-Spacewatch MPS 79965
1996 09 19.34031 23 41 35.99 -01 41 01.2 20.1 V 691 – Steward Observatory, Kitt Peak-Spacewatch MPS 79965
1996 09 19.36441 23 41 34.80 -01 41 09.3 20.0 V 691 – Steward Observatory, Kitt Peak-Spacewatch MPS 79965
1999 03 13.43407 13 27 35.96 -08 55 23.4 20.2 V 691 – Steward Observatory, Kitt Peak-Spacewatch MPS 79965
1999 03 13.45531 13 27 35.39 -08 55 20.5 21.0 V 691 – Steward Observatory, Kitt Peak-Spacewatch MPS 79965
1999 03 13.47677 13 27 34.71 -08 55 16.0 21.1 V 691 – Steward Observatory, Kitt Peak-Spacewatch MPS 79965
2001 10 18.35026 02 07 58.01 +12 04 40.2 19.8   644 – Palomar Mountain/NEAT MPS 42098
2001 10 18.37331 02 07 56.82 +12 04 33.7 19.8   644 – Palomar Mountain/NEAT MPS 42098
2001 10 18.39495 02 07 55.72 +12 04 27.5 19.8   644 – Palomar Mountain/NEAT MPS 42098
2001 10 20.34093 02 06 18.08 +11 55 03.7 18.8   704 – Lincoln Laboratory ETS, New Mexico MPS 41174
2001 10 20.35726 02 06 17.16 +11 54 58.8 19.3   704 – Lincoln Laboratory ETS, New Mexico MPS 41174
2001 10 20.37361 02 06 16.33 +11 54 54.6 19.5   704 – Lincoln Laboratory ETS, New Mexico MPS 41174
2001 10 23.26906 02 03 49.23 +11 40 43.1 19.4   704 – Lincoln Laboratory ETS, New Mexico MPS 41174
2001 10 23.28546 02 03 48.36 +11 40 39.0 20.0   704 – Lincoln Laboratory ETS, New Mexico MPS 41174
2001 10 23.30187 02 03 47.49 +11 40 34.2 19.7   704 – Lincoln Laboratory ETS, New Mexico MPS 41174
2001 10 23.31828 02 03 46.62 +11 40 28.5 19.6   704 – Lincoln Laboratory ETS, New Mexico MPS 41174
2001 10 24.27489 02 02 57.59 +11 35 46.9 20.0   704 – Lincoln Laboratory ETS, New Mexico MPS 42098
2001 10 24.29144 02 02 56.80 +11 35 41.8 19.6   704 – Lincoln Laboratory ETS, New Mexico MPS 42098
2001 10 24.30798 02 02 55.97 +11 35 37.0 19.6   704 – Lincoln Laboratory ETS, New Mexico MPS 42098
2001 11 21.16259 01 42 03.19 +09 33 48.0 19.9   704 – Lincoln Laboratory ETS, New Mexico MPS 44526
2001 11 21.19184 01 42 02.08 +09 33 41.7 20.5   704 – Lincoln Laboratory ETS, New Mexico MPS 44526
2001 11 21.20647 01 42 01.56 +09 33 38.1 19.8   704 – Lincoln Laboratory ETS, New Mexico MPS 44526
2003 01 27.32542 09 03 09.62 +15 14 16.3 19.7   704 – Lincoln Laboratory ETS, New Mexico MPS 73263
2003 01 27.34077 09 03 08.74 +15 14 19.4 19.5   704 – Lincoln Laboratory ETS, New Mexico MPS 73263
2003 01 27.34239 09 03 08.64 +15 14 19.9 18.7 R 699 – Lowell Observatory-LONEOS MPS 71567
2003 01 27.35624 09 03 07.89 +15 14 24.2 19.4   704 – Lincoln Laboratory ETS, New Mexico MPS 73263
2003 01 27.36366 09 03 07.60 +15 14 25.4   699 – Lowell Observatory-LONEOS MPS 71567
2003 01 27.37176 09 03 07.00 +15 14 27.6 19.6   704 – Lincoln Laboratory ETS, New Mexico MPS 73263
2003 01 27.38498 09 03 06.36 +15 14 29.6   699 – Lowell Observatory-LONEOS MPS 71567
2003 01 27.40631 09 03 05.12 +15 14 35.6   699 – Lowell Observatory-LONEOS MPS 71567
2003 01 31.34163 08 59 32.37 +15 30 36.0 19.2   704 – Lincoln Laboratory ETS, New Mexico MPS 71567
2003 01 31.35560 08 59 31.55 +15 30 39.1 19.7   704 – Lincoln Laboratory ETS, New Mexico MPS 71567
2003 01 31.36962 08 59 30.85 +15 30 43.5 19.5   704 – Lincoln Laboratory ETS, New Mexico MPS 71567
2003 02 02.35462 08 57 42.41 +15 38 52.4 20.3   608 – Haleakala-AMOS MPS 71567
2003 02 02.36509 08 57 41.83 +15 38 54.7 20.3   608 – Haleakala-AMOS MPS 71567
2003 02 02.37570 08 57 41.24 +15 38 57.6 20.6   608 – Haleakala-AMOS MPS 71567
2003 02 08.36252 08 52 15.83 +16 03 25.6 20.2   608 – Haleakala-AMOS MPS 73263
2003 02 08.37401 08 52 15.18 +16 03 28.1 20.1   608 – Haleakala-AMOS MPS 73263
2003 02 08.38453 08 52 14.58 +16 03 30.5 20.6   608 – Haleakala-AMOS MPS 73263
2005 08 28.20268 22 46 35.62 -06 54 28.8 20.0 V 691 – Steward Observatory, Kitt Peak-Spacewatch MPS 140134
2005 08 28.22014 22 46 34.76 -06 54 34.1 20.0 V 691 – Steward Observatory, Kitt Peak-Spacewatch MPS 140134
2005 08 28.23757 22 46 33.91 -06 54 39.7 20.1 V 691 – Steward Observatory, Kitt Peak-Spacewatch MPS 140134
2005 09 11.17774 22 35 26.53 -08 06 54.8 20.1 V 691 – Steward Observatory, Kitt Peak-Spacewatch MPS 141650
2005 09 11.19509 22 35 25.72 -08 07 00.3 20.3 V 691 – Steward Observatory, Kitt Peak-Spacewatch MPS 141650
2005 09 11.21244 22 35 24.88 -08 07 05.4 20.2 V 691 – Steward Observatory, Kitt Peak-Spacewatch MPS 141650
2005 09 29.21205 22 23 40.52 -09 24 22.1 20.3 V G96 – Mt. Lemmon Survey MPS 142572
2005 09 29.22005 22 23 40.27 -09 24 23.8 20.4 V G96 – Mt. Lemmon Survey MPS 142572
2005 09 29.22800 22 23 40.02 -09 24 25.5 20.3 V G96 – Mt. Lemmon Survey MPS 142572
2005 09 29.23594 22 23 39.76 -09 24 26.5 19.9 V G96 – Mt. Lemmon Survey MPS 142572
2006 09 27.40175 05 04 34.10 +21 40 59.8 20.5 V G96 – Mt. Lemmon Survey MPS 180831
2006 09 27.40884 05 04 34.24 +21 40 59.5 21.1 V G96 – Mt. Lemmon Survey MPS 180831
2006 09 27.41575 05 04 34.42 +21 40 59.7 21.0 V G96 – Mt. Lemmon Survey MPS 180831
2006 09 27.42246 05 04 34.60 +21 40 59.9 20.9 V G96 – Mt. Lemmon Survey MPS 180831
2006 10 31.37007 05 05 45.09 +21 22 11.2 19.9 V G96 – Mt. Lemmon Survey MPS 185290
2006 10 31.37486 05 05 44.95 +21 22 11.1 19.9 V G96 – Mt. Lemmon Survey MPS 185290
2006 10 31.37940 05 05 44.84 +21 22 10.8 20.0 V G96 – Mt. Lemmon Survey MPS 185290
2006 10 31.38382 05 05 44.70 +21 22 10.4 19.9 V G96 – Mt. Lemmon Survey MPS 185290
2006 11 11.33687 04 59 32.87 +21 07 36.7 20.5 V 691 – Steward Observatory, Kitt Peak-Spacewatch MPS 186822
2006 11 11.35422 04 59 32.12 +21 07 35.3 20.4 V 691 – Steward Observatory, Kitt Peak-Spacewatch MPS 186822
2006 11 11.37156 04 59 31.36 +21 07 33.7 20.3 V 691 – Steward Observatory, Kitt Peak-Spacewatch MPS 186822
2006 11 19.28633 04 53 22.00 +20 54 29.4 20.3 V 691 – Steward Observatory, Kitt Peak-Spacewatch MPS 188434
2006 11 19.30364 04 53 21.09 +20 54 27.8 20.1 V 691 – Steward Observatory, Kitt Peak-Spacewatch MPS 188434
2006 11 19.32441 04 53 19.99 +20 54 25.3 20.2 V 691 – Steward Observatory, Kitt Peak-Spacewatch MPS 188434
2006 11 23.27829 04 49 51.44 +20 47 11.7 20.1 V 691 – Steward Observatory, Kitt Peak-Spacewatch MPS 188434
2006 11 23.29564 04 49 50.46 +20 47 09.7 20.1 V 691 – Steward Observatory, Kitt Peak-Spacewatch MPS 188434
2006 11 23.31305 04 49 49.49 +20 47 07.8 20.1 V 691 – Steward Observatory, Kitt Peak-Spacewatch MPS 188434
2006 11 24.39807 04 48 49.96 +20 45 04.3 19.3 V G96 – Mt. Lemmon Survey MPS 190332
2006 11 24.40213 04 48 49.71 +20 45 03.7 19.5 V G96 – Mt. Lemmon Survey MPS 190332
2006 11 24.40619 04 48 49.50 +20 45 03.2 19.5 V G96 – Mt. Lemmon Survey MPS 190332
2006 11 24.41036 04 48 49.24 +20 45 03.0 19.4 V G96 – Mt. Lemmon Survey MPS 190332
2006 12 01.27028 04 42 20.34 +20 31 34.8 19.4   704 – Lincoln Laboratory ETS, New Mexico MPS 190332
2006 12 01.28323 04 42 19.52 +20 31 32.8 19.7   704 – Lincoln Laboratory ETS, New Mexico MPS 190332
2006 12 01.28831 04 42 19.29 +20 31 31.5 20.2 V 691 – Steward Observatory, Kitt Peak-Spacewatch MPS 190332
2006 12 01.29619 04 42 18.80 +20 31 30.8 19.2   704 – Lincoln Laboratory ETS, New Mexico MPS 190332
2006 12 01.30558 04 42 18.26 +20 31 29.6 19.8 V 691 – Steward Observatory, Kitt Peak-Spacewatch MPS 190332
2006 12 01.30914 04 42 17.97 +20 31 29.7 19.4   704 – Lincoln Laboratory ETS, New Mexico MPS 190332
2006 12 01.32291 04 42 17.23 +20 31 27.5 20.0 V 691 – Steward Observatory, Kitt Peak-Spacewatch MPS 190332
2006 12 12.34925 04 31 44.65 +20 09 08.7 19.4 V 703 – Catalina Sky Survey MPS 195306
2006 12 12.35583 04 31 44.14 +20 09 07.3 19.8 V 703 – Catalina Sky Survey MPS 195306
